ENMS Weather Reports


time (UTC)temp
F
wind
direction
speed
knots
gust
knots
rain 1hr
in
rain 24hr
in
rain mn
in
humidity
%
barometer
mb
20260506013307 35 200 7.0 0.0 0.00 0.00 0.00 86 1004.0
20260506010307 33 190 5.2 0.0 0.00 0.00 0.00 93 1004.0
20260506003306 33 190 2.6 0.0 0.00 0.00 0.00 93 1004.0
20260506000307 33 160 2.6 0.0 0.00 0.00 0.00 93 1004.0
20260505233307 33 200 5.2 0.0 0.00 0.00 0.00 93 1004.0
20260505230306 33 190 4.3 0.0 0.00 0.00 0.00 93 1004.0
20260505223306 33 180 5.2 0.0 0.00 0.00 0.00 93 1003.0
20260505220306 33 170 5.2 0.0 0.00 0.00 0.00 93 1003.0
20260505213306 33 180 7.8 0.0 0.00 0.00 0.00 93 1003.0
20260505210306 33 180 8.7 0.0 0.00 0.00 0.00 93 1003.0
20260505203306 35 200 7.8 0.0 0.00 0.00 0.00 86 1003.0
20260505200306 35 160 6.1 15.6 0.00 0.00 0.00 86 1003.0
20260505193306 35 160 10.4 0.0 0.00 0.00 0.00 86 1003.0
20260505190306 35 160 6.1 0.0 0.00 0.00 0.00 86 1003.0
20260505183306 37 190 5.2 0.0 0.00 0.00 0.00 80 1003.0
20260505180307 35 150 4.3 0.0 0.00 0.00 0.00 86 1003.0
20260505173307 37 190 5.2 0.0 0.00 0.00 0.00 80 1004.0
20260505170307 33 140 4.3 0.0 0.00 0.00 0.00 93 1004.0
20260505163307 35 0 0.0 0.0 0.00 0.00 0.00 80 1004.0
20260505160307 35 0 2.6 0.0 0.00 0.00 0.00 80 1004.0
20260505153307 37 180 7.0 0.0 0.00 0.00 0.00 74 1004.0
20260505150306 41 0 0.0 0.0 0.00 0.00 0.00 60 1003.0
20260505140307 41 230 8.7 0.0 0.00 0.00 0.00 56 1003.0
20260505130307 37 150 6.1 0.0 0.00 0.00 0.00 80 1003.0
20260505123306 37 230 7.0 0.0 0.00 0.00 0.00 74 1003.0
20260505120306 39 190 5.2 0.0 0.00 0.00 0.00 75 1003.0
20260505113307 37 50 1.7 0.0 0.00 0.00 0.00 74 1003.0
20260505110307 39 30 4.3 0.0 0.00 0.00 0.00 69 1002.0
20260505100307 41 290 4.3 0.0 0.00 0.00 0.00 70 1002.0
20260505093306 37 10 2.6 0.0 0.00 0.00 0.00 80 1002.0
20260505090307 39 0 2.6 0.0 0.00 0.00 0.00 69 1002.0
20260505083306 35 190 4.3 0.0 0.00 0.00 0.00 86 1002.0
20260505080307 33 180 7.8 0.0 0.00 0.00 0.00 93 1002.0
20260505073306 33 170 5.2 0.0 0.00 0.00 0.00 93 1002.0
20260505070307 35 150 2.6 0.0 0.00 0.00 0.00 86 1002.0
20260505063306 33 170 2.6 0.0 0.00 0.00 0.00 93 1002.0
20260505060306 33 240 4.3 0.0 0.00 0.00 0.00 86 1001.0
20260505053309 33 130 2.6 0.0 0.00 0.00 0.00 93 1001.0
20260505050306 32 170 2.6 0.0 0.00 0.00 0.00 86 1001.0
20260505040306 32 150 2.6 0.0 0.00 0.00 0.00 92 1001.0
20260505033306 30 0 0.0 0.0 0.00 0.00 0.00 92 1001.0
20260505030306 28 220 0.9 0.0 0.00 0.00 0.00 92 1001.0
20260505023306 28 0 1.7 0.0 0.00 0.00 0.00 10 1001.0
20260505020306 30 0 1.7 0.0 0.00 0.00 0.00 86 1001.0